EN

Hourly Weather Venecia

Today, 30 November, Monday

Time Temperature Precipitation Wind Pressure Humidity
00:00 +18°C° 2.3 mm 0 mps 644 mmHg 98%
01:00 +17°C° 0 mm 0 mps 644 mmHg 97%
02:00 +17°C° 1 mm 0 mps 644 mmHg 97%
03:00 +17°C° 1 mm 0 mps 644 mmHg 98%
04:00 +17°C° 1 mm 0 mps 643 mmHg 98%
05:00 +17°C° 0 mm 0 mps 644 mmHg 98%
06:00 +17°C° 0 mm 0 mps 644 mmHg 97%
07:00 +18°C° 0 mm 0 mps 644 mmHg 97%
08:00 +19°C° 0.1 mm 0 mps 645 mmHg 89%
09:00 +21°C° 0.1 mm 0 mps 646 mmHg 82%
10:00 +23°C° 0.1 mm 0 mps 647 mmHg 75%
11:00 +24°C° 1.2 mm 0 mps 646 mmHg 74%
12:00 +24°C° 1.2 mm 0 mps 645 mmHg 73%
13:00 +25°C° 1.2 mm 0 mps 645 mmHg 73%
14:00 +24°C° 1.5 mm 0 mps 644 mmHg 79%
15:00 +25°C° 1.5 mm 1 mps 643 mmHg 86%
16:00 +24°C° 1.5 mm 1 mps 643 mmHg 92%
17:00 +23°C° 1.3 mm 1 mps 643 mmHg 94%
18:00 +19°C° 1.3 mm 0 mps 643 mmHg 95%
19:00 +18°C° 1.3 mm 0 mps 643 mmHg 96%
20:00 +18°C° 1.1 mm 0 mps 644 mmHg 97%
21:00 +17°C° 1.1 mm 0 mps 644 mmHg 97%
22:00 +17°C° 1.1 mm 0 mps 645 mmHg 97%
23:00 +17°C° 1.1 mm 0 mps 644 mmHg 97%

Tomorrow, 1 December, Tuesday

Time Temperature Precipitation Wind Pressure Humidity
00:00 +17°C° 1.1 mm 0 mps 644 mmHg 98%
01:00 +17°C° 1.1 mm 0 mps 644 mmHg 98%
02:00 +17°C° 2.9 mm 0 mps 644 mmHg 98%
03:00 +17°C° 2.9 mm 0 mps 644 mmHg 98%
04:00 +17°C° 2.9 mm 0 mps 644 mmHg 99%
05:00 +17°C° 1.2 mm 0 mps 644 mmHg 98%
06:00 +17°C° 1.2 mm 0 mps 644 mmHg 98%
07:00 +17°C° 1.2 mm 0 mps 645 mmHg 98%
08:00 +19°C° 0.1 mm 0 mps 645 mmHg 91%
09:00 +21°C° 0.1 mm 0 mps 646 mmHg 83%
10:00 +22°C° 0.1 mm 0 mps 647 mmHg 75%
11:00 +23°C° 0.5 mm 0 mps 646 mmHg 72%
12:00 +24°C° 0.5 mm 0 mps 646 mmHg 69%
13:00 +25°C° 0.5 mm 0 mps 645 mmHg 66%
14:00 +24°C° 1.1 mm 0 mps 645 mmHg 75%
15:00 +25°C° 1.1 mm 1 mps 644 mmHg 84%
16:00 +23°C° 1.1 mm 1 mps 643 mmHg 93%
17:00 +22°C° 0.8 mm 1 mps 643 mmHg 94%
18:00 +19°C° 0.8 mm 0 mps 643 mmHg 95%
19:00 +18°C° 0.8 mm 0 mps 643 mmHg 96%
20:00 +17°C° 0.4 mm 0 mps 644 mmHg 97%
21:00 +17°C° 0.4 mm 0 mps 644 mmHg 97%
22:00 +17°C° 0.4 mm 0 mps 644 mmHg 97%
23:00 +17°C° 0.3 mm 0 mps 644 mmHg 97%

Day after tomorrow, 2 December, Wednesday

Time Temperature Precipitation Wind Pressure Humidity
00:00 +17°C° 0.3 mm 0 mps 644 mmHg 97%
01:00 +17°C° 0.3 mm 0 mps 643 mmHg 98%
02:00 +17°C° 1.8 mm 0 mps 643 mmHg 98%
03:00 +17°C° 1.8 mm 0 mps 643 mmHg 98%
04:00 +17°C° 1.8 mm 0 mps 643 mmHg 99%
05:00 +17°C° 1.7 mm 0 mps 643 mmHg 99%
06:00 +17°C° 1.7 mm 0 mps 644 mmHg 99%
07:00 +17°C° 1.7 mm 0 mps 644 mmHg 99%
08:00 +18°C° 0.3 mm 0 mps 645 mmHg 95%
09:00 +19°C° 0.3 mm 0 mps 645 mmHg 91%
10:00 +20°C° 0.3 mm 0 mps 646 mmHg 87%
11:00 +21°C° 0.5 mm 0 mps 646 mmHg 82%
12:00 +22°C° 0.5 mm 0 mps 646 mmHg 77%
13:00 +24°C° 0.5 mm 0 mps 645 mmHg 72%
14:00 +23°C° 0.7 mm 0 mps 645 mmHg 76%
15:00 +24°C° 0.7 mm 1 mps 644 mmHg 80%
16:00 +24°C° 0.7 mm 1 mps 644 mmHg 84%
17:00 +22°C° 0.6 mm 1 mps 644 mmHg 88%
18:00 +19°C° 0.6 mm 0 mps 644 mmHg 93%
19:00 +17°C° 0.6 mm 0 mps 644 mmHg 97%
20:00 +17°C° 0.3 mm 0 mps 644 mmHg 97%
21:00 +17°C° 0.3 mm 0 mps 644 mmHg 96%
22:00 +17°C° 0.3 mm 0 mps 645 mmHg 96%
23:00 +17°C° 0.7 mm 0 mps 645 mmHg 97%

3 December, Thursday

Time Temperature Precipitation Wind Pressure Humidity
00:00 +17°C° 0.7 mm 0 mps 644 mmHg 97%
01:00 +17°C° 0.7 mm 0 mps 644 mmHg 98%
02:00 +17°C° 1.6 mm 0 mps 644 mmHg 98%
03:00 +17°C° 1.6 mm 0 mps 644 mmHg 99%
04:00 +17°C° 1.6 mm 0 mps 643 mmHg 99%
05:00 +17°C° 1 mm 0 mps 644 mmHg 99%
06:00 +17°C° 1 mm 0 mps 644 mmHg 99%
07:00 +17°C° 1 mm 0 mps 645 mmHg 99%
08:00 +18°C° 0.2 mm 0 mps 645 mmHg 96%
09:00 +19°C° 0.2 mm 0 mps 646 mmHg 93%
10:00 +20°C° 0.2 mm 0 mps 646 mmHg 90%
11:00 +21°C° 0.6 mm 0 mps 646 mmHg 84%
12:00 +23°C° 0.6 mm 0 mps 646 mmHg 78%
13:00 +24°C° 0.6 mm 0 mps 646 mmHg 72%
14:00 +23°C° 1.2 mm 0 mps 645 mmHg 77%
15:00 +23°C° 1.2 mm 0 mps 644 mmHg 82%
16:00 +22°C° 1.2 mm 0 mps 644 mmHg 87%
17:00 +20°C° 0.8 mm 0 mps 644 mmHg 90%
18:00 +19°C° 0.8 mm 0 mps 644 mmHg 93%
19:00 +17°C° 0.8 mm 0 mps 644 mmHg 96%
20:00 +17°C° 0.4 mm 0 mps 644 mmHg 96%
21:00 +17°C° 0.4 mm 0 mps 645 mmHg 97%
22:00 +17°C° 0.4 mm 0 mps 645 mmHg 97%
23:00 +16°C° 0.1 mm 0 mps 645 mmHg 97%

4 December, Friday

Time Temperature Precipitation Wind Pressure Humidity
00:00 +16°C° 0.1 mm 0 mps 645 mmHg 97%
01:00 +16°C° 0.1 mm 0 mps 644 mmHg 98%
02:00 +16°C° 0 mm 0 mps 644 mmHg 98%
03:00 +16°C° 0 mm 0 mps 644 mmHg 98%
04:00 +16°C° 0 mm 0 mps 644 mmHg 98%
05:00 +16°C° 0 mm 0 mps 644 mmHg 97%
06:00 +16°C° 0 mm 0 mps 645 mmHg 97%
07:00 +17°C° 0 mm 0 mps 645 mmHg 96%
08:00 +19°C° 0 mm 0 mps 646 mmHg 88%
09:00 +21°C° 0 mm 0 mps 646 mmHg 79%
10:00 +23°C° 0 mm 0 mps 647 mmHg 70%
11:00 +24°C° 0.2 mm 0 mps 647 mmHg 66%
12:00 +25°C° 0.2 mm 0 mps 646 mmHg 61%
13:00 +26°C° 0.2 mm 0 mps 646 mmHg 56%
14:00 +26°C° 0.4 mm 0 mps 645 mmHg 61%
15:00 +25°C° 0.4 mm 0 mps 644 mmHg 65%
16:00 +24°C° 0.4 mm 0 mps 644 mmHg 70%
17:00 +22°C° 0.4 mm 0 mps 644 mmHg 79%
18:00 +22°C° 0.4 mm 1 mps 644 mmHg 87%
19:00 +20°C° 0.4 mm 1 mps 643 mmHg 96%
20:00 +19°C° 0.2 mm 1 mps 644 mmHg 96%
21:00 +17°C° 0.2 mm 0 mps 644 mmHg 97%
22:00 +17°C° 0.2 mm 0 mps 645 mmHg 97%
23:00 +17°C° 0.1 mm 0 mps 644 mmHg 97%

5 December, Saturday

Time Temperature Precipitation Wind Pressure Humidity
00:00 +17°C° 0.1 mm 0 mps 644 mmHg 97%
01:00 +17°C° 0.1 mm 0 mps 644 mmHg 97%
02:00 +16°C° 0.1 mm 0 mps 644 mmHg 98%
03:00 +16°C° 0.1 mm 0 mps 644 mmHg 98%
04:00 +16°C° 0.1 mm 0 mps 644 mmHg 98%
05:00 +16°C° 0.1 mm 0 mps 644 mmHg 98%
06:00 +17°C° 0.1 mm 0 mps 645 mmHg 98%
07:00 +17°C° 0.1 mm 0 mps 645 mmHg 97%
08:00 +19°C° 0.1 mm 0 mps 646 mmHg 89%
09:00 +21°C° 0.1 mm 0 mps 647 mmHg 81%
10:00 +23°C° 0.1 mm 0 mps 647 mmHg 73%
11:00 +24°C° 0.2 mm 0 mps 647 mmHg 68%
12:00 +25°C° 0.2 mm 0 mps 646 mmHg 62%
13:00 +27°C° 0.2 mm 0 mps 646 mmHg 56%
14:00 +26°C° 0.4 mm 0 mps 645 mmHg 61%
15:00 +25°C° 0.4 mm 0 mps 645 mmHg 65%
16:00 +24°C° 0.4 mm 0 mps 644 mmHg 69%
17:00 +22°C° 0.4 mm 0 mps 644 mmHg 78%
18:00 +22°C° 0.4 mm 1 mps 644 mmHg 87%
19:00 +20°C° 0.4 mm 1 mps 644 mmHg 96%
20:00 +20°C° 0.3 mm 1 mps 644 mmHg 96%
21:00 +19°C° 0.3 mm 1 mps 645 mmHg 97%
22:00 +17°C° 0.3 mm 0 mps 645 mmHg 97%
23:00 +17°C° 0.2 mm 0 mps 645 mmHg 97%
Show more

We Need Your Consent

Meteoprog and our Service Providers may store and access personal data such as cookies, device identifiers or other similar technologies on your device and process such data to personalise content and ads, as well as provide social media features and to analyse the traffic.

  • Store and/or access information on your device

    Cookies, device identifiers or other information can be stored or accessed on your device for the purposes indicated above.

  • Personalised ads and content, ad and content measurement, audience insights, and products development

    Ads and content can be personalised based on a profile. More data can be added to better personalise ads and content. Ad and content performance can be measured. Insights about the audience who saw the ads and content can be derived. Such data can be used to develop or improve user’s experience, systems and software.

By clicking ‘I Agree’ you will allow the use of indicated cookies, device identifiers, web beacons or other similar technologies. Your settings can be changed in the browser on your device.

For certain purposes, legitimate interests may be relied on, rather than consent. You can read more about this in our Privacy and Cookie Policy.